View from above orbital plane
|
View from above satellite
|
Ground track
|
The orbit data is extracted from the following two-line orbital elements,
1 40911U 15049N 21017.08782669 .00000705 00000-0 39425-4 0 9990
2 40911 97.4812 21.8422 0013888 357.6961 75.7787 15.16629233294545
Epoch (UTC): | 17 January 2021 02:06:28 |
Eccentricity: | 0.0013888 |
inclination: | 97.4812° |
perigee height: | 506 km |
apogee height: | 525 km |
right ascension of ascending node: | 21.8422° |
argument of perigee: | 357.6961° |
revolutions per day: | 15.16629233 |
mean anomaly at epoch: | 75.7787° |
orbit number at epoch: | 29454 |
The dashed part of the orbit path shows where the satellite is in the earth's shadow,
|
|